Showing default

ARVAKER-1, 63252

Orbit data source: Space-Track

ARVAKER-1, 63252 is a payload satellite owned by NSC (NO) in SSO that was launched on Sat, 15 Mar 2025 UTC via an FALCON 9 launch vehicle from the Air Force Western Test Range (AFWTR). Payload-class satellites include a variety of spacecraft equipped with specific instruments for various scientific and technological missions. These include communications satellites like Starlink; space stations such as the ISS; scientific satellites like the Hubble; Earth observation satellites from companies like Planet Labs, Umbra, and HawkEye 360; GPS; miniature CubeSats for education and research; and military/defense satellites.

Loading next visibility...
Identifier
63252, 2025-052AU
Orbit
SSO
Country
Flag of NONO / NOR
Related business
Manufacturer
NanoAvionics
Mission
Operational Commercial Sigint
Bus & Motor
MP42, Unknown motor
Mass
~100 kg wet, ~100 kg dry
Launch date (UTC)
2025-03-15 (1 year ago)
Launch vehicle
FALCON 9
Launch site
Air Force Western Test Range (AFWTR)
Object type
Payload
Rocket body
Debris
Shape & HBR
Box + 2 Pan, 0.8 m
Radar Cross Section
0.146 m², Medium (>0.1 m² and < 1m²)

Expand to show TLE details & history
Last TLE update: 18 hours ago

TLE from 18 hours ago
0 ARVAKER-1
1 63252U 25052AU  26072.26332271  .00002594  00000-0  24764-3 0  9991
2 63252  97.6988 325.4001 0002866 142.6127 217.5293 14.94158729 54285
Epoch: 2026-03-13T06:19Z
TLE epoch observation values (Epoch: 2026-03-13T06:19:11.082Z)
Latitude
-0.00001°
Longitude
59.70256°
Altitude
589.615 km
Speed
7.564 km/s
True Right ascension
21h 41m 36s
True Declination
0° 00' 00"
Sunlit
Object was in daylight at epoch
Visualization orbit readout
Latitude
Unknown
Longitude
Unknown
Altitude
Unknown
Speed
Unknown
Apparent Right ascension
Unknown
Apparent Declination
Unknown
Sunlit
N/A
Visualization observer readout
Local Sidereal Time
04:32:39
Azimuth
Unknown
Elevation
Unknown
Doppler factor
Unknown
Orbital elements
Apogee altitude
583.993 km
Perigee altitude
580.003 km
Semi-major axis
6,960.135 km
Eccentricity
0.00029
Inclination
97.6988°
RAAN
325.4001°
Arg. of periapsis
142.6127°
True anomaly
217.5093°
Mean anomaly
217.5293°
Eccentric anomaly
217.5193°
Mean motion
3.73781 °/min
Orbital period
96.31 mins
BSTAR
0.00024764
Loading maneuver chart data...
Computing Atmospheric mass density...
Loading historical data...
Loading historical data...
Loading historical data...
Loading historical data...
Loading historical data...
Loading historical data...
Loading historical data...

Documentation

Showing up to 5 results
|